Regional Weather Roundup
Issued by NWS

Home | Current Version | Previous Version | Text Only | Print | Product List | Glossary On
Versions: 1 2 3 4 5 6 7 8 9 10 11 12 13 14 15 16 17 18 19 20 21 22 23 24 25 26 27 28 29 30 31 32 33 34 35 36 37 38 39 40 41 42 43 44 45 46 47 48 49 50
000
ASUS46 KSTO 010315
RWRCA

NORTHERN AND CENTRAL CA REGIONAL WEATHER ROUNDUP
NATIONAL WEATHER SERVICE SACRAMENTO CA
800 PM PDT FRI SEP 30 2016

NOTE: FAIR INDICATES FEW OR NO CLOUDS BELOW 12,000 FEET WITH NO
SIGNIFICANT WEATHER AND/OR OBSTRUCTIONS TO VISIBILITY.

CAZ001-003-010400-
NORTHWEST AREA

CITY           SKY/WX    TMP DP  RH WIND       PRES   REMARKS
CRESCENT CITY  PTCLDY    56  47  71 S12       30.08F
UKIAH          CLEAR     58  45  62 N7        30.07R
$$

CAZ006-505>513-010400-
BAY AREA

CITY           SKY/WX    TMP DP  RH WIND       PRES   REMARKS
SANTA ROSA     MOCLDY    61  46  57 W7        30.03R
SAN RAFAEL     N/A       59  MM  MM MISG
NAPA           MOCLDY    61  47  59 W16       30.03R
CONCORD        PTCLDY    62  45  53 SW8       30.05S
OAKLAND CITY   N/A       59  MM  MM MISG
OAKLAND        PTCLDY    61  51  70 W18       30.07F
SAN FRAN CITY  N/A       56  MM  72 MISG
SAN FRAN ARPT  PTCLDY    58  50  75 W24       30.08F
LIVERMORE      CLEAR     58  47  66 W12       30.06S
HAYWARD        CLEAR     60  48  64 W15       30.08S
REDWOOD CITY   N/A       58  MM  74 MISG
MOFFETT ARPT   CLEAR     60  48  64 W6        30.10S
SAN JOSE ARPT  PTCLDY    61  46  57 W8        30.09S
$$
CAZ034-037-514>518-010400-
CENTRAL COAST

CITY           SKY/WX    TMP DP  RH WIND       PRES   REMARKS
WATSONVILLE    CLEAR     59  49  69 SE5       30.07S
SALINAS        CLEAR     58  48  69 SW13      30.07S
MONTEREY       CLEAR     57  48  72 VRB3      30.10R
SAN LUIS OBISP CLEAR     59  51  75 N7        30.02R
SANTA MARIA    CLEAR     56  52  86 NW8       30.03S
$$
CAZ015-016-010400-
NORTHERN SACRAMENTO VALLEY

CITY           SKY/WX    TMP DP  RH WIND       PRES   REMARKS
REDDING        MOCLDY    71  22  15 NW3       29.92R
RED BLUFF      CLOUDY    73  24  16 VRB7      29.95R
OROVILLE       CLOUDY    68  43  40 SE15      29.96S
$$
CAZ016>018-010400-
SOUTHERN SACRAMENTO VALLEY

CITY           SKY/WX    TMP DP  RH WIND       PRES   REMARKS
AUBURN         PTCLDY    61  36  39 S6        30.03R
BEALE AFB      CLOUDY    66  43  42 S14       29.95S
LINCOLN        FAIR      64  41  42 S10       29.98R
MARYSVILLE     CLOUDY    65  44  46 SE15      29.97R
SAC INTL ARPT  MOCLDY    63  45  51 S8        29.97R
MATHER AIRPORT CLEAR     61  45  55 S8        30.00S
DOWNTOWN SAC   N/A       62  MM  MM MISG
SAC EXEC ARPT  MOCLDY    61  44  53 S12       29.99R
VACAVILLE      CLOUDY    68  36  30 W13       29.99S
TRAVIS AFB     MOCLDY    61  46  58 SW16      29.99S
$$
CAZ019>021-010400-
SAN JOAQUIN VALLEY

CITY           SKY/WX    TMP DP  RH WIND       PRES   REMARKS
STOCKTON       CLEAR     61  46  57 W12       30.01S
MODESTO        CLEAR     67  35  30 NW15      30.00R
MERCED         CLEAR     69  37  30 NW14      29.98R
LEMOORE        CLEAR     77  40  26 NW15      29.94R
FRESNO         CLEAR     77  39  25 NW13      29.94R
HANFORD        CLEAR     78  42  27 NW13      29.93R
PORTERVILLE    CLEAR     78  52  40 NW3       29.93R
BAKERSFIELD    CLEAR     82  44  26 CALM      29.92R
$$
CAZ011-012-071-010400-
NORTHERN MOUNTAINS

CITY           SKY/WX    TMP DP  RH WIND       PRES   REMARKS
YREKA          MOCLDY    57  21  24 NW12      30.00R
MOUNT SHASTA   MOCLDY    53  30  41 NE6       30.00R
ALTURAS        MOCLDY    58  34  40 W16       29.99R
$$
CAZ011-012-071-010400-
SIERRA NEVADA MTNS

CITY           SKY/WX    TMP DP  RH WIND       PRES   REMARKS
BLUE CANYON    CLEAR     53  28  38 S8        30.13F
TRUCKEE        CLEAR     54  28  37 S13G20    30.13R
TAHOE VLY ARPT CLEAR     56  28  34 S16G30    30.12S
MAMMOTH LAKES  FAIR      57  28  32 E5        30.22S
$$



USA.gov is the U.S. government's official web portal to all federal, state and local government web resources and services.